Vorticity
5 8 8 7 6 1 5 6 7 6 6 6 6 6 6 7 8 7 8 9 9 11
3 4 6 8 16 -2 7 6 7 7 6 6 6 7 6 7 7 7 7 8 10 11
7 7 7 8 7 7 8 10 8 7 7 6 8 6 6 5 6 7 5 6 7 8
3 3 4 8 4 8 9 2 6 7 5 6 7 7 7 8 8 7 6 5 5 5
6 4 3 2 3 6 5 6 6 9 7 6 6 5 5 5 6 6 6 7 6 5
21 8 8 6 4 3 4 6 9 10 7 10 8 7 7 7 7 7 6 7 5 6
5 12 12 8 8 7 4 4 2 4 6 6 5 6 7 5 7 6 8 8 7 7
-3 0 -8 7 11 10 11 9 8 3 5 5 7 8 9 13 6 10 8 7 9 11
8 -7 9 2 -8 10 8 3 6 12 9 5 3 4 6 5 -4 8 59 8 5 5
-2 3 -3 28 14 2 9 2 18 14 6 13 9 5 1 4 5 7 6 2 4 3
35 15 13 26 19 19 16 19 4 -5 13 7 6 8 8 9 5 3 1 2 5 7
10 19 23 22 2 11 18 2 15 12 9 -3 15 16 8 9 4 11 18 12 2 6
11 5 7 9 14 17 7 9 5 -17 18 14 14 -2 -0 9 12 15 -1 3 9 12
4 15 10 10 14 23 26 28 5 13 1 40 18 29 19 26 15 6 6 -0 7 1
Height
5934 5935 5938 5941 5945 5948 5945 5944 5945 5949 5952 5952 5953 5955 5957 5958 5960 5960 5958 5958 5961 5963
5936 5937 5941 5944 5944 5944 5946 5945 5944 5943 5949 5955 5955 5956 5958 5959 5960 5960 5960 5961 5961 5960
5937 5936 5939 5942 5946 5944 5945 5944 5946 5944 5945 5952 5955 5956 5956 5957 5958 5959 5959 5959 5960 5960
5935 5935 5935 5938 5942 5941 5940 5940 5941 5943 5945 5951 5953 5954 5955 5956 5956 5956 5957 5957 5958 5959
5932 5934 5935 5934 5935 5941 5939 5940 5942 5944 5947 5949 5951 5951 5952 5953 5954 5954 5955 5956 5957 5958
5930 5930 5932 5934 5934 5936 5940 5943 5945 5946 5946 5947 5948 5949 5949 5950 5950 5950 5952 5953 5954 5955
5920 5923 5926 5929 5931 5933 5934 5936 5938 5940 5943 5945 5945 5946 5946 5946 5947 5947 5950 5950 5950 5952
5915 5917 5919 5922 5924 5927 5930 5932 5934 5937 5938 5940 5943 5940 5938 5935 5938 5943 5940 5943 5946 5949
5909 5911 5912 5916 5918 5920 5922 5924 5927 5930 5933 5937 5935 5935 5934 5931 5936 5935 5902 5934 5938 5945
5900 5904 5907 5908 5909 5910 5913 5916 5919 5923 5925 5927 5926 5926 5929 5932 5933 5930 5932 5933 5935 5938
5892 5895 5899 5901 5903 5906 5906 5909 5913 5913 5915 5917 5920 5920 5921 5924 5926 5929 5930 5929 5930 5932
5886 5887 5891 5894 5896 5897 5899 5902 5904 5905 5906 5908 5910 5912 5914 5916 5917 5918 5918 5919 5922 5923
5881 5883 5885 5888 5890 5891 5892 5891 5893 5895 5897 5898 5900 5902 5904 5908 5907 5908 5910 5913 5915 5914
5875 5877 5878 5880 5881 5883 5883 5883 5884 5885 5888 5889 5890 5891 5893 5897 5897 5897 5898 5902 5903 5901